STARLINK-11559, 62831

Orbit data source: Space-Track

STARLINK-11559, 62831 is a payload satellite owned by SpaceX/Seattle (US) in LEO that was launched on Mon, 27 Jan 2025 UTC via an FALCON 9 launch vehicle from the Air Force Eastern Test Range (AFETR). Payload-class satellites include a variety of spacecraft equipped with specific instruments for various scientific and technological missions. These include communications satellites like Starlink; space stations such as the ISS; scientific satellites like the Hubble; Earth observation satellites from companies like Planet Labs, Umbra, and HawkEye 360; GPS; miniature CubeSats for education and research; and military/defense satellites.

Loading next visibility...
Identifier
62831, 2025-019C
Orbit
LEO
Last TLE update
8 hours ago
Origin
Manufacturer
SpaceX/Seattle
Mission
Operational Commercial Communications
Bus & Motor
STARLINK V2M, Unknown motor
Mass
730 kg wet, ~700 kg dry
Launch date (UTC)
2025-01-27 (3 months ago)
Launch vehicle
FALCON 9
Launch site
Air Force Eastern Test Range (AFETR)
Object type
Payload
Rocket body
Debris
Shape & HBR
Box + 2 Pan, 29 m
Radar Cross Section
36.964 m², Large (>1 m²)

Expand to show TLE details & history

TLE from 8 hours ago
0 STARLINK-11559
1 62831U 25019C   25128.92281409  .00000490  00000-0  73300-5 0  9991
2 62831  43.0035 343.4789 0003571 252.2205 107.8273 15.70834141 15940
Epoch: 2025-05-08T22:08Z
Definitive object data (Epoch: 2025-05-08T22:08:51.137Z)
Latitude
-0.00002°
Longitude
144.27945°
Altitude
357.02 km
Speed
7.696 km/s
True Right ascension
22h 53m 54s
True Declination
0° 00' 00"
Sunlit
Object was in daylight at TLE epoch
Visualization TLE readout
Latitude
11.16791°
Longitude
154.4963°
Altitude
356.793 km
Speed
7.697 km/s
Apparent Right ascension
00h 36m 03s
Apparent Declination
-14° 13' 04"
Sunlit
Object is in daylight
Visualization observer readout
Local Sidereal Time
13:59:33
Azimuth
41.329° NE
Elevation
-58.461°
Doppler factor
1
Orbital elements
Apogee altitude
360.898 km
Perigee altitude
356.087 km
Semi-major axis
6,736.63 km
Eccentricity
0.0003571
Inclination
43.0035°
RAAN
343.4789°
Arg. of periapsis
252.2205°
True anomaly
107.86625°
Mean anomaly
107.8273°
Eccentric anomaly
107.84678°
Mean motion
3.92536 °/min
BSTAR
0.00000733
Orbital period
91.71 mins
Loading maneuver chart data...
Loading SW <> Apogee altitude chart data...
Loading historical data...
Loading historical data...
Loading historical data...
Loading historical data...
Loading historical data...
Loading historical data...
Loading historical data...

STARLINK-11559 Visibility forecast

Observer location: undefined°, undefined°

Span
Click to sort rows by Start time (UTC) header in descending order
Start Az.
Max El. time (UTC)
Max El. Az.
Max El.
End time (UTC)
End Az.
4 mins2025-05-09 18:14:49.213Z230.326° WSW2025-05-09 18:15:49.213Z178.191° S42.14°2025-05-09 18:18:49.213Z75.351° E
4 mins2025-05-09 19:50:49.213Z294.927° NW2025-05-09 19:51:49.213Z331.869° NNW34.295°2025-05-09 19:54:49.213Z69.163° E
4 mins2025-05-09 21:26:49.213Z297.99° NW2025-05-09 21:28:49.213Z46.977° ENE38.971°2025-05-09 21:30:49.213Z91.199° ESE
4 mins2025-05-09 23:02:49.213Z263.086° W2025-05-09 23:04:49.213Z193.799° SSW27.613°2025-05-09 23:06:49.213Z145.903° SSE
|